Meteopurmerend
purmerend
Purmerend - Baaienwijk



My webcam  My webcam


Onweer radar Meer informatie blitzortung!


Regen radar Meer informatie rain snow radar


Bezoek onze andere website:

CandyAppleRed WebdesignWebdesign Purmerend Candy Apple Red

MeteopurmerendBlog

Template documentation
and downloads



Het weer levert geen direct gevaar op.    Er zijn geen waarschuwingen afgegeven.

15 daagse weersverwachting Pori (FI)

  • Overzicht
  • Per uur
  • 15 dagen
  • Extra
  • Vergelijk
  • Kaarten
  • Dagkaart
  • Meer »
  • Info
  • Statistieken
  • Directe link
    Temp 6h Neerslag Wind  
 07:20     19:32    Daglengte: 12:12 Vandaag
03:00
 
1
09:00
 
2
15:00
11°
 
3
21:00
 
3
 07:22     19:29    Daglengte: 12:07 Morgen
03:00
 
5
09:00
 
6
15:00
1.9 mm
7
21:00
12.2 mm
7
 07:25     19:25    Daglengte: 12:00 Vrijdag 24 Sep
03:00
31.7 mm
5
09:00
54.3 mm
4
15:00
27.2 mm
3
21:00
28.4 mm
4
Locatie info
Region: Satakunta
Latitude: 61.4860°N
Longitude: 21.7954°E
19 masl
Postcode: 28100
Temp/Neerslag /Baro Onweer/Dauwpunt
    Temp Baro 1h Neerslag Dauwpunt Wind UV Bewolking  
 07:20     19:32    Daglengte: 12:12 Vandaag
01:00
Voelt als: 0.3°
1023.5 hPa   0.5°
1
Windvlaag: 0.4 m/s
0%
02:00
Voelt als: -0.2°
1023.5 hPa   -0.0°
1
Windvlaag: 0.3 m/s
2%
03:00
Voelt als: -0.8°
1023.4 hPa   -0.4°
1
Windvlaag: 0.4 m/s
15%
04:00
Voelt als: -0.8°
1023.5 hPa   -0.6°
1
Windvlaag: 0.5 m/s
43%
05:00
-0°
Voelt als: -1.5°
1023.4 hPa   -0.8°
1
Windvlaag: 0.5 m/s
55%
06:00
-0°
Voelt als: -1.8°
1023.4 hPa   -0.9°
1
Windvlaag: 0.4 m/s
80%
07:00
-0°
Voelt als: -2.1°
1023.2 hPa   -0.8°
2
Windvlaag: 0.8 m/s
74%
08:00
-0°
Voelt als: -2.0°
1023.2 hPa   -0.7°
2
Windvlaag: 1.2 m/s
68%
09:00
Voelt als: -0.8°
1023.1 hPa   0.4°
2
Windvlaag: 1.4 m/s
56%
10:00
Voelt als: 2.0°
1023.2 hPa   2.3°
2
Windvlaag: 2.5 m/s
56%
11:00
Voelt als: 4.1°
1022.9 hPa   3.4°
2
Windvlaag: 3.8 m/s
43%
12:00
Voelt als: 6.4°
1022.4 hPa   2.5°
3
Windvlaag: 5.2 m/s
15%
13:00
10°
Voelt als: 8.1°
1022.0 hPa   1.4°
3
Windvlaag: 5.5 m/s
70%
14:00
10°
1021.4 hPa   1.6°
3
Windvlaag: 5.5 m/s
72%
15:00
11°
1020.6 hPa   2.1°
3
Windvlaag: 5.2 m/s
70%
16:00
11°
1020.0 hPa   2.6°
3
Windvlaag: 5.3 m/s
78%
17:00
11°
1019.2 hPa   3.0°
3
Windvlaag: 5.1 m/s
69%
18:00
10°
1018.5 hPa   3.4°
3
Windvlaag: 5 m/s
76%
19:00
Voelt als: 8.0°
1017.8 hPa   3.5°
2
Windvlaag: 4.6 m/s
77%
20:00
Voelt als: 6.7°
1017.1 hPa   3.3°
3
Windvlaag: 4.6 m/s
81%
21:00
Voelt als: 6.0°
1016.6 hPa   3.2°
3
Windvlaag: 6.4 m/s
85%
22:00
Voelt als: 5.4°
1016.0 hPa   3.5°
3
Windvlaag: 6.9 m/s
85%
23:00
Voelt als: 4.7°
1015.0 hPa   4.8°
4
Windvlaag: 7.2 m/s
78%
 07:22     19:29    Daglengte: 12:07 Morgen
00:00
Voelt als: 4.3°
1014.1 hPa   5.3°
4
Windvlaag: 7.6 m/s
84%
01:00
Voelt als: 4.2°
1013.3 hPa   5.3°
4
Windvlaag: 7.9 m/s
86%
02:00
Voelt als: 4.3°
1012.3 hPa   5.3°
4
Windvlaag: 7.9 m/s
86%
03:00
Voelt als: 4.1°
1011.2 hPa   5.5°
5
Windvlaag: 8.4 m/s
68%
04:00
Voelt als: 4.2°
1010.0 hPa   6.0°
5
Windvlaag: 8.6 m/s
86%
05:00
Voelt als: 4.2°
1008.6 hPa   5.9°
5
Windvlaag: 8.8 m/s
85%
06:00
Voelt als: 4.5°
1007.3 hPa   6.1°
5
Windvlaag: 9.4 m/s
83%
07:00
Voelt als: 4.5°
1006.0 hPa   6.1°
6
Windvlaag: 9.6 m/s
86%
08:00
Voelt als: 4.6°
1004.6 hPa   6.0°
6
Windvlaag: 10 m/s
86%
09:00
Voelt als: 5.0°
1003.5 hPa
23%
6.1°
6
Windvlaag: 9.9 m/s
86%
10:00
Voelt als: 5.3°
1002.3 hPa
71%
6.2°
7
Windvlaag: 11.1 m/s
86%
11:00
Voelt als: 5.4°
1001.1 hPa 0.2 mm
71%
6.5°
7
Windvlaag: 11.5 m/s
86%
12:00
Voelt als: 5.3°
999.7 hPa
76%
6.8°
7
Windvlaag: 9.8 m/s
86%
13:00
Voelt als: 5.6°
998.2 hPa
82%
6.9°
7
Windvlaag: 10.7 m/s
83%
14:00
Voelt als: 5.8°
997.0 hPa 0.9 mm
82%
7.4°
7
Windvlaag: 10.6 m/s
80%
15:00
Voelt als: 5.7°
995.8 hPa 0.9 mm
82%
7.7°
7
Windvlaag: 10.8 m/s
86%
16:00
Voelt als: 5.3°
994.4 hPa 1.0 mm
82%
7.4°
8
Windvlaag: 11 m/s
84%
17:00
Voelt als: 4.9°
993.3 hPa 1.0 mm
82%
7.4°
8
Windvlaag: 10.6 m/s
86%
18:00
Voelt als: 5.2°
991.5 hPa 1.5 mm
100%
7.4°
8
Windvlaag: 10.7 m/s
100%
19:00
Voelt als: 4.9°
990.7 hPa 2.2 mm
100%
7.6°
8
Windvlaag: 10.5 m/s
100%
20:00
Voelt als: 4.8°
990.0 hPa 2.9 mm
100%
7.5°
7
Windvlaag: 8.9 m/s
100%
21:00
Voelt als: 4.8°
989.4 hPa 3.6 mm
100%
7.5°
7
Windvlaag: 7.6 m/s
100%
22:00
Voelt als: 5.0°
989.2 hPa 4.3 mm
100%
7.8°
6
Windvlaag: 5.4 m/s
100%
23:00
Voelt als: 5.0°
989.1 hPa 5.0 mm
100%
7.9°
6
Windvlaag: 3.5 m/s
100%
 07:25     19:25    Daglengte: 12:00 Vrijdag 24 Sep
00:00
Voelt als: 4.9°
989.1 hPa 5.5 mm
100%
7.9°
6
Windvlaag: 3.2 m/s
100%
01:00
Voelt als: 4.8°
988.8 hPa 5.7 mm
100%
7.6°
5
Windvlaag: 2.4 m/s
97%
02:00
Voelt als: 4.9°
988.7 hPa 5.7 mm
100%
7.3°
5
Windvlaag: 2 m/s
98%
03:00
Voelt als: 4.8°
988.7 hPa 5.5 mm
100%
6.7°
5
Windvlaag: 1 m/s
100%
04:00
Voelt als: 4.9°
989.0 hPa 9.1 mm
100%
6.2°
5
Windvlaag: 0.5 m/s
98%
05:00
Voelt als: 4.7°
989.6 hPa 9.0 mm
100%
6.5°
5
Windvlaag: 0.2 m/s
97%
06:00
Voelt als: 4.4°
990.2 hPa 9.0 mm
100%
6.2°
4
Windvlaag: -0.9 m/s
96%
07:00
Voelt als: 4.3°
991.0 hPa 9.1 mm
100%
6.3°
4
Windvlaag: -1.9 m/s
97%
08:00
Voelt als: 4.6°
991.7 hPa 9.1 mm
100%
6.8°
4
Windvlaag: -1.9 m/s
96%
09:00
Voelt als: 5.7°
992.7 hPa 9.1 mm
100%
7.2°
4
Windvlaag: -1.8 m/s
95%
10:00
Voelt als: 6.1°
993.5 hPa 9.1 mm
100%
6.7°
3
Windvlaag: -1.6 m/s
96%
11:00
Voelt als: 6.4°
994.3 hPa 9.0 mm
95%
5.9°
4
Windvlaag: -1.5 m/s
95%
12:00
Voelt als: 6.9°
994.7 hPa
80%
5.3°
3
Windvlaag: -1.2 m/s
96%
13:00
Voelt als: 7.4°
995.4 hPa
28%
5.6°
3
Windvlaag: -0.1 m/s
100%
14:00
10°
Voelt als: 8.0°
996.2 hPa
26%
6.8°
3
Windvlaag: 0.1 m/s
100%
15:00
Voelt als: 8.0°
996.6 hPa 9.0 mm
26%
6.7°
3
Windvlaag: 0.5 m/s
100%
16:00
10°
Voelt als: 7.9°
995.9 hPa
35%
7.5°
4
Windvlaag: 3.7 m/s
100%
17:00
10°
Voelt als: 7.9°
996.0 hPa
38%
6.6°
4
Windvlaag: 4.6 m/s
100%
18:00
10°
Voelt als: 7.8°
996.3 hPa
82%
7.3°
3
Windvlaag: 5.4 m/s
100%
19:00
Voelt als: 7.7°
996.6 hPa 9.2 mm
100%
8.2°
3
Windvlaag: 6.8 m/s
100%
20:00
Voelt als: 7.0°
996.7 hPa 9.7 mm
100%
7.8°
3
Windvlaag: 8.2 m/s
100%
21:00
Voelt als: 6.6°
996.5 hPa 9.5 mm
100%
7.2°
4
Windvlaag: 9.2 m/s
100%
22:00
10°
Voelt als: 7.2°
991.8 hPa 28.2 mm
100%
7.2°
5
Windvlaag: 8.2 m/s
100%
23:00
Voelt als: 7.4°
992.1 hPa 28.2 mm
100%
6.7°
4
Windvlaag: 8.1 m/s
97%
 07:27     19:22    Daglengte: 11:55 Zaterdag 25 Sep
00:00
Voelt als: 7.3°
992.2 hPa 28.2 mm
100%
6.6°
4
Windvlaag: 7.7 m/s
88%
Temp/Neerslag /Baro Onweer/Dauwpunt
    Temp Baro Neerslag Dauwpunt Wind Bewolking  
 07:20     19:32    Daglengte: 12:12 Vandaag
03:00
Voelt als: -0.8°
1023.4 hPa   -0.4°
1
15%
06:00
-0°
Voelt als: -1.8°
1023.4 hPa   -0.9°
1
80%
09:00
Voelt als: -0.8°
1023.1 hPa   0.4°
2
56%
12:00
Voelt als: 6.4°
1022.4 hPa   2.5°
3
15%
15:00
11°
1020.6 hPa   2.1°
3
70%
18:00
10°
1018.5 hPa   3.4°
3
76%
21:00
Voelt als: 6.0°
1016.6 hPa   3.2°
3
85%
 07:22     19:29    Daglengte: 12:07 Morgen
00:00
Voelt als: 4.3°
1014.1 hPa   5.3°
4
84%
03:00
Voelt als: 4.1°
1011.2 hPa   5.5°
5
68%
06:00
Voelt als: 4.5°
1007.3 hPa   6.1°
5
83%
09:00
Voelt als: 5.0°
1003.5 hPa   6.1°
6
86%
12:00
Voelt als: 5.3°
999.7 hPa 0.2 mm 6.8°
7
86%
15:00
Voelt als: 5.7°
995.8 hPa 1.7 mm 7.7°
7
86%
18:00
Voelt als: 5.2°
991.5 hPa 3.4 mm 7.4°
8
100%
21:00
Voelt als: 4.8°
989.4 hPa 8.7 mm 7.5°
7
100%
 07:25     19:25    Daglengte: 12:00 Vrijdag 24 Sep
00:00
Voelt als: 4.9°
989.1 hPa 14.9 mm 7.9°
6
100%
03:00
Voelt als: 4.8°
988.7 hPa 16.9 mm 6.7°
5
100%
06:00
Voelt als: 4.4°
990.2 hPa 27.1 mm 6.2°
4
96%
09:00
Voelt als: 5.7°
992.7 hPa 27.2 mm 7.2°
4
95%
12:00
Voelt als: 6.9°
994.7 hPa 18.2 mm 5.3°
3
96%
15:00
Voelt als: 8.0°
996.6 hPa 9.0 mm 6.7°
3
100%
18:00
10°
Voelt als: 7.8°
996.3 hPa   7.3°
3
100%
21:00
Voelt als: 6.6°
996.5 hPa 28.4 mm 7.2°
4
100%
 07:27     19:22    Daglengte: 11:55 Zaterdag 25 Sep
00:00
Voelt als: 7.3°
992.2 hPa 84.6 mm 6.6°
4
88%
03:00
Voelt als: 5.8°
991.8 hPa 84.6 mm 5.2°
3
0%
06:00
Voelt als: 5.1°
995.6 hPa 22.3 mm 5.1°
2
0%
09:00
Voelt als: 6.5°
996.6 hPa 22.3 mm 6.2°
3
0%
12:00
11°
998.2 hPa 22.4 mm 7.6°
3
1%
15:00
12°
1001.2 hPa 22.5 mm 7.1°
3
1%
18:00
11°
1004.6 hPa 22.5 mm 7.0°
3
0%
21:00
Voelt als: 7.0°
1007.4 hPa 22.5 mm 6.4°
3
0%
 07:30     19:19    Daglengte: 11:49 Zondag 26 Sep
00:00
10°
Voelt als: 7.8°
1010.0 hPa 22.5 mm 6.7°
4
0%
03:00
Voelt als: 7.4°
1012.7 hPa 22.5 mm 6.6°
2
0%
06:00
Voelt als: 7.0°
1014.5 hPa 22.5 mm 5.7°
2
0%
09:00
10°
Voelt als: 7.8°
1016.1 hPa 22.5 mm 6.1°
4
0%
12:00
14°
1017.6 hPa 22.5 mm 7.4°
5
0%
15:00
15°
1018.4 hPa 22.5 mm 8.6°
5
0%
18:00
14°
1019.4 hPa 22.5 mm 8.8°
5
0%
21:00
11°
1021.1 hPa 22.5 mm 8.8°
4
0%
 07:32     19:16    Daglengte: 11:44 Maandag 27 Sep
00:00
11°
1022.6 hPa 22.5 mm 8.7°
4
1%
03:00
11°
1023.7 hPa 22.5 mm 8.7°
4
1%
06:00
10°
Voelt als: 7.7°
1024.6 hPa 22.5 mm 7.7°
4
1%
09:00
10°
1025.6 hPa 22.5 mm 6.6°
5
1%
12:00
15°
1026.2 hPa 22.5 mm 6.9°
5
0%
15:00
16°
1026.3 hPa 22.5 mm 7.3°
5
0%
18:00
14°
1026.2 hPa 22.5 mm 7.1°
5
0%
21:00
11°
1026.2 hPa 22.5 mm 6.7°
5
0%
 07:35     19:13    Daglengte: 11:38 Dinsdag 28 Sep
00:00
10°
1026.3 hPa 22.5 mm 7.1°
5
0%
03:00
Voelt als: 6.8°
1025.9 hPa 22.5 mm 7.1°
5
0%
06:00
Voelt als: 5.9°
1025.1 hPa 22.5 mm 6.7°
5
0%
09:00
Voelt als: 6.3°
1024.9 hPa 22.5 mm 6.8°
6
0%
12:00
13°
1024.9 hPa 22.5 mm 7.7°
6
0%
15:00
15°
1025.3 hPa 22.5 mm 7.7°
6
0%
18:00
13°
1025.7 hPa 22.5 mm 7.0°
5
1%
21:00
11°
1026.5 hPa 22.5 mm 6.2°
5
1%
 07:38     19:09    Daglengte: 11:31 Woensdag 29 Sep
00:00
10°
Voelt als: 7.6°
1026.6 hPa   6.3°
5
1%
03:00
10°
Voelt als: 7.3°
1026.6 hPa 45.0 mm 6.4°
5
1%
09:00
Voelt als: 6.7°
1027.2 hPa 45.0 mm 7.0°
5
1%
15:00
10°
1028.4 hPa 46.2 mm 7.8°
5
1%
21:00
10°
1029.0 hPa 51.9 mm 8.7°
5
1%
 07:40     19:06    Daglengte: 11:26 Donderdag 30 Sep
03:00
11°
1029.9 hPa 54.5 mm 9.6°
6
1%
09:00
10°
1030.6 hPa 54.9 mm 9.5°
5
1%
15:00
11°
1031.6 hPa 55.6 mm 8.6°
5
1%
21:00
10°
1031.4 hPa 55.7 mm 6.1°
6
1%
 07:43     19:03    Daglengte: 11:20 Vrijdag 01 Okt
03:00
Voelt als: 5.9°
1030.9 hPa 55.7 mm 5.0°
5
1%
09:00
Voelt als: 4.1°
1030.3 hPa 55.7 mm 4.4°
6
1%
15:00
11°
1031.1 hPa 55.7 mm 5.6°
5
1%
21:00
Voelt als: 6.4°
1025.9 hPa 0.3 mm 5.1°
3
58%
 07:45     19:00    Daglengte: 11:15 Zaterdag 02 Okt
03:00
Voelt als: 5.5°
1025.8 hPa 0.2 mm 4.8°
3
53%
09:00
Voelt als: 5.3°
1025.3 hPa   5.3°
3
54%
15:00
11°
1025.0 hPa 0.2 mm 6.3°
3
51%
21:00
Voelt als: 6.5°
1024.6 hPa 0.2 mm 5.9°
4
55%
 07:48     18:57    Daglengte: 11:09 Zondag 03 Okt
03:00
Voelt als: 5.6°
1024.2 hPa 0.3 mm 5.6°
3
61%
09:00
Voelt als: 5.7°
1023.5 hPa 0.7 mm 6.2°
4
69%
15:00
11°
1023.2 hPa 0.6 mm 6.9°
4
70%
21:00
Voelt als: 6.9°
1022.8 hPa 0.5 mm 6.4°
3
74%
 07:50     18:54    Daglengte: 11:04 Maandag 04 Okt
03:00
Voelt als: 6.4°
1022.6 hPa 0.1 mm 5.9°
2
72%
09:00
Voelt als: 6.0°
1022.4 hPa 0.2 mm 5.8°
2
71%
15:00
11°
1022.5 hPa 0.4 mm 6.5°
2
70%
21:00
Voelt als: 6.8°
1022.0 hPa 0.6 mm 6.0°
2
73%
 07:53     18:50    Daglengte: 10:57 Dinsdag 05 Okt
03:00
Voelt als: 5.8°
1021.0 hPa 0.8 mm 5.6°
2
72%
09:00
Voelt als: 5.8°
1019.6 hPa 0.3 mm 5.7°
2
80%
15:00
10°
1018.2 hPa 1.3 mm 6.8°
2
79%
21:00
Voelt als: 8.0°
1017.7 hPa 0.8 mm 6.3°
1
76%
 07:55     18:47    Daglengte: 10:52 Woensdag 06 Okt
03:00
Voelt als: 7.3°
1017.5 hPa 0.6 mm 5.8°
1
74%
09:00
Voelt als: 7.3°
1017.4 hPa 0.4 mm 5.6°
1
70%
15:00
10°
1018.1 hPa 0.2 mm 6.0°
1
64%
21:00
Voelt als: 7.4°
1018.7 hPa 0.1 mm 5.2°
0
54%
  CAPE Lifted Index Hail Supercell Tornado SRH 3km CL BTM PRES CL TOP PRES Swiss DWD icon SMHI TS
 07:20     19:32    Daglengte: 12:12 Vandaag
01:00 0 J/kg 13.8 K 0 % 0 % 0 % 0 m²/s² 0 0 18.36 0
02:00 0 J/kg 14.0 K 0 % 0 % 0 % 0 m²/s² 0 0 18.83 0
03:00 0 J/kg 14.3 K 0 % 0 % 0 % 0 m²/s² 0 0 19.25 1
04:00 0 J/kg 14.6 K 0 % 0 % 0 % 0 m²/s² 0 0 19.55 3
05:00 0 J/kg 15.0 K 0 % 0 % 0 % 0 m²/s² 0 0 20.1 45
06:00 0 J/kg 15.5 K 0 % 0 % 0 % 0 m²/s² 0 0 20.36 45
07:00 0 J/kg 16.2 K 0 % 0 % 0 % 0 m²/s² 0 0 20.82 45
08:00 0 J/kg 16.8 K 0 % 0 % 0 % 0 m²/s² 0 0 21.21 45
09:00 0 J/kg 17.4 K 0 % 0 % 0 % 0 m²/s² 0 0 21.81 3
10:00 0 J/kg 17.4 K 0 % 0 % 0 % 0 m²/s² 0 0 21.72 3
11:00 0 J/kg 17.3 K 0 % 0 % 0 % 0 m²/s² 0 0 21.5 2
12:00 0 J/kg 16.3 K 0 % 0 % 0 % 0 m²/s² 0 0 20.53 3
13:00 0 J/kg 15.7 K 0 % 0 % 0 % 0 m²/s² 0 0 20.17 3
14:00 0 J/kg 15.3 K 0 % 0 % 0 % 0 m²/s² 0 0 19.89 3
15:00 0 J/kg 14.9 K 0 % 0 % 0 % 0 m²/s² 0 0 19.25 3
16:00 0 J/kg 14.2 K 0 % 0 % 0 % 0 m²/s² 0 0 18.55 3
17:00 0 J/kg 14.5 K 0 % 0 % 0 % 0 m²/s² 0 0 19.24 3
18:00 0 J/kg 14.5 K 0 % 0 % 0 % 0 m²/s² 0 0 18.37 3
19:00 0 J/kg 14.0 K 0 % 0 % 0 % 0 m²/s² 0 0 16.58 3
20:00 0 J/kg 13.6 K 0 % 0 % 0 % 0 m²/s² 0 0 15.37 3
21:00 0 J/kg 13.2 K 0 % 0 % 0 % 0 m²/s² 0 0 13.89 3
22:00 0 J/kg 13.3 K 0 % 0 % 0 % 0 m²/s² 0 0 13.48 3
23:00 0 J/kg 12.8 K 0 % 0 % 0 % 0 m²/s² 0 0 12.92 3
 07:22     19:29    Daglengte: 12:07 Morgen
00:00 0 J/kg 11.9 K 0 % 0 % 0 % 0 m²/s² 0 0 12.02 3
01:00 0 J/kg 11.4 K 0 % 0 % 0 % 0 m²/s² 0 0 11.61 3
02:00 0 J/kg 11.4 K 0 % 0 % 0 % 0 m²/s² 0 0 11.88 3
03:00 0 J/kg 11.0 K 0 % 0 % 0 % 0 m²/s² 0 0 11.66 3
04:00 0 J/kg 9.0 K 0 % 0 % 0 % 0 m²/s² 0 0 10.02 3
05:00 0 J/kg 6.9 K 0 % 0 % 0 % 0 m²/s² 0 0 8.64 3
06:00 0 J/kg 5.6 K 0 % 0 % 0 % 0 m²/s² 0 0 8.27 3
07:00 0 J/kg 5.1 K 0 % 0 % 0 % 0 m²/s² 0 0 8.88 3
08:00 0 J/kg 5.4 K 0 % 0 % 0 % 0 m²/s² 0 0 8.79 3
09:00 0 J/kg 5.5 K 0 % 0 % 0 % 0 m²/s² 0 0 7.78 3
10:00 0 J/kg 4.9 K 0 % 0 % 0 % 0 m²/s² 0 0 6.43 3
11:00 0 J/kg 5.4 K 0 % 0 % 0 % 0 m²/s² 0 0 6.87 61
12:00 0 J/kg 5.3 K 0 % 0 % 0 % 0 m²/s² 0 0 6.89 61
13:00 0 J/kg 5.2 K 0 % 0 % 0 % 0 m²/s² 0 0 6.91 61
14:00 0 J/kg 4.7 K 0 % 0 % 0 % 0 m²/s² 0 0 5.39 61
15:00 0 J/kg 4.4 K 0 % 0 % 0 % 0 m²/s² 0 0 4.64 61
16:00 0 J/kg 4.3 K 0 % 0 % 0 % 0 m²/s² 0 0 4.51 61
17:00 7 J/kg 4.6 K 0 % 0 % 0 % 0 m²/s² 0 0 4.81 61
18:00 10 J/kg 4.8 K 0 % 0 % 0 % 0 m²/s² 0 0 5.01 61
19:00 6 J/kg 4.0 K 0 % 0 % 0 % 0 m²/s² 0 0 4.18 61
20:00 1 J/kg 4.1 K 0 % 0 % 0 % 0 m²/s² 0 0 4.31 61
21:00 0 J/kg 3.5 K 0 % 0 % 0 % 0 m²/s² 0 0 3.71 61
22:00 46 J/kg 3.6 K 0 % 0 % 0 % 0 m²/s² 0 0 3.81 61
23:00 32 J/kg 4.2 K 0 % 0 % 0 % 0 m²/s² 0 0 4.44 61
 07:25     19:25    Daglengte: 12:00 Vrijdag 24 Sep
00:00 55 J/kg 4.4 K 0 % 0 % 0 % 0 m²/s² 0 0 4.64 61
01:00 52 J/kg 4.6 K 0 % 0 % 0 % 0 m²/s² 0 0 4.9 61
02:00 28 J/kg 5.1 K 0 % 0 % 0 % 0 m²/s² 0 0 5.46 61
03:00 7 J/kg 5.3 K 0 % 0 % 0 % 0 m²/s² 0 0 5.93 61
04:00 1 J/kg 5.5 K 0 % 0 % 0 % 0 m²/s² 0 0 6.25 61
05:00 6 J/kg 5.5 K 0 % 0 % 0 % 0 m²/s² 0 0 6.16 61
06:00 13 J/kg 5.1 K 0 % 0 % 0 % 0 m²/s² 0 0 6.09 3
07:00 7 J/kg 5.0 K 0 % 0 % 0 % 0 m²/s² 0 0 6.2 3
08:00 3 J/kg 5.1 K 0 % 0 % 0 % 0 m²/s² 0 0 6.45 3
09:00 1 J/kg 5.3 K 0 % 0 % 0 % 0 m²/s² 0 0 6.65 61
10:00 3 J/kg 5.3 K 0 % 0 % 0 % 0 m²/s² 0 0 6.8 61
11:00 17 J/kg 5.1 K 0 % 0 % 0 % 0 m²/s² 0 0 6.84 3
12:00 20 J/kg 5.1 K 0 % 0 % 0 % 0 m²/s² 0 0 6.84 3
13:00 23 J/kg 4.7 K 0 % 0 % 0 % 0 m²/s² 0 0 6.5 3
14:00 31 J/kg 4.2 K 0 % 0 % 0 % 0 m²/s² 0 0 6.24 3
15:00 39 J/kg 4.2 K 0 % 0 % 0 % 0 m²/s² 0 0 6.3 3
16:00 45 J/kg 4.2 K 0 % 0 % 0 % 0 m²/s² 0 0 6 3
17:00 37 J/kg 4.8 K 0 % 0 % 0 % 0 m²/s² 0 0 6.18 3
18:00 50 J/kg 5.0 K 0 % 0 % 0 % 0 m²/s² 0 0 5.75 3
19:00 71 J/kg 4.8 K 0 % 0 % 0 % 0 m²/s² 0 0 5.34 61
20:00 47 J/kg 5.2 K 0 % 0 % 0 % 0 m²/s² 0 0 5.62 61
21:00 18 J/kg 6.0 K 0 % 0 % 0 % 0 m²/s² 0 0 6.54 61
22:00 18 J/kg 6.6 K 0 % 0 % 0 % 0 m²/s² 0 0 7.83
23:00 30 J/kg 6.7 K 0 % 0 % 0 % 0 m²/s² 0 0 11.29
 07:27     19:22    Daglengte: 11:55 Zaterdag 25 Sep
00:00 45 J/kg 6.5 K 0 % 0 % 0 % 0 m²/s² 0 0 11.57
Temp Baro Wind Neerslag
  EWN Forecast EWN WRFDA DWD ICON FMI HIRLAM MET Norway GFS
 07:20     19:32    Daglengte: 12:12 Vandaag
03:00 0.5° 1023.4 hPa 1.2 m/s 0.0 mm 2.4° 1021.4 hPa 2.3 m/s 0.0 mm 1.5° 1023.5 hPa 1.5 m/s 0.0 mm -0.7° 1023.9 hPa 1.1 m/s 0.0 mm 3.1° 1023.7 hPa 1.9 m/s
06:00 -0.2° 1023.4 hPa 1.4 m/s 0.0 mm 2.0° 1021.4 hPa 2.2 m/s 0.0 mm 0.7° 1023.5 hPa 1.4 m/s 0.0 mm -1.3° 1023.6 hPa 1.0 m/s 0.0 mm 3.0° 1023.4 hPa 2.3 m/s
09:00 1.3° 1023.1 hPa 1.9 m/s 0.0 mm 3.6° 1021.5 hPa 2.1 m/s 0.0 mm 2.1° 1023.4 hPa 2.3 m/s 0.0 mm 0.9° 1023.2 hPa 1.1 m/s 0.0 mm 4.7° 1023.4 hPa 2.4 m/s
12:00 8.3° 1022.4 hPa 3.0 m/s 0.0 mm 9.8° 1020.7 hPa 3.3 m/s 0.0 mm 8.2° 1022.7 hPa 3.1 m/s 0.0 mm 8.5° 1022.6 hPa 2.2 m/s 0.0 mm 9.3° 1022.4 hPa 3.0 m/s
15:00 10.7° 1020.6 hPa 2.9 m/s 0.0 mm 11.9° 1018.8 hPa 3.4 m/s 0.0 mm 10.4° 1020.4 hPa 3.5 m/s 0.0 mm 12.5° 1021.3 hPa 1.7 m/s 0.0 mm 11.3° 1020.5 hPa 3.3 m/s
18:00 10.3° 1018.5 hPa 2.8 m/s 0.0 mm 11.9° 1016.9 hPa 3.8 m/s 0.0 mm 9.9° 1018.5 hPa 2.9 m/s 0.0 mm 12.0° 1019.1 hPa 2.2 m/s 0.0 mm 10.6° 1018.3 hPa 3.6 m/s
21:00 8.0° 1016.6 hPa 3.2 m/s 0.0 mm 10.3° 1015.3 hPa 4.1 m/s 0.0 mm 7.4° 1016.6 hPa 3.2 m/s 0.0 mm 9.9° 1017.3 hPa 2.1 m/s 0.0 mm 7.5° 1017.2 hPa 4.3 m/s
 07:22     19:29    Daglengte: 12:07 Morgen
00:00 7.1° 1014.1 hPa 4.1 m/s 0.0 mm 9.4° 1013.1 hPa 5.0 m/s 0.0 mm 6.7° 1013.9 hPa 4.3 m/s 0.0 mm 7.7° 1015.4 hPa 2.3 m/s 0.0 mm 7.3° 1014.6 hPa 4.8 m/s
03:00 7.2° 1011.2 hPa 4.8 m/s 0.0 mm 7.9° 1010.0 hPa 5.4 m/s 0.0 mm 7.1° 1010.8 hPa 5.1 m/s 0.0 mm 7.4° 1012.7 hPa 3.1 m/s 0.0 mm 6.9° 1011.3 hPa 5.6 m/s
06:00 7.6° 1007.3 hPa 5.3 m/s 0.0 mm 8.3° 1006.2 hPa 6.3 m/s 0.0 mm 7.5° 1007.1 hPa 5.5 m/s 0.0 mm 8.1° 1009.7 hPa 3.4 m/s 0.0 mm 7.1° 1007.3 hPa 6.4 m/s
09:00 8.3° 1003.5 hPa 6.4 m/s 0.0 mm 9.3° 1002.2 hPa 7.5 m/s 0.0 mm 8.4° 1003.2 hPa 6.5 m/s 0.0 mm 8.3° 1006.4 hPa 4.1 m/s 0.0 mm 8.4° 1003.3 hPa 7.7 m/s
12:00 8.7° 999.7 hPa 6.9 m/s 0.2 mm 10.6° 997.7 hPa 8.1 m/s 0.2 mm 9.2° 999.4 hPa 7.4 m/s 0.4 mm 8.6° 1002.7 hPa 3.9 m/s 0.0 mm 9.8° 998.5 hPa 8.3 m/s
15:00 9.1° 995.8 hPa 7.3 m/s 1.7 mm 10.8° 992.8 hPa 8.3 m/s 0.3 mm 9.5° 995.6 hPa 8.2 m/s 1.0 mm 9.1° 999.0 hPa 4.2 m/s 0.0 mm 9.8° 993.9 hPa 8.6 m/s
18:00 8.9° 991.5 hPa 8.4 m/s 3.4 mm 11.4° 987.0 hPa 8.5 m/s 5.6 mm 8.9° 992.1 hPa 8.1 m/s 2.3 mm 9.2° 987.9 hPa 9.9 m/s
21:00 8.4° 989.4 hPa 7.2 m/s 8.7 mm 10.7° 982.3 hPa 7.3 m/s 31.5 mm 8.4° 990.3 hPa 7.3 m/s 2.8 mm 9.0° 984.1 hPa 9.4 m/s
 07:25     19:25    Daglengte: 12:00 Vrijdag 24 Sep
00:00 8.0° 989.1 hPa 5.5 m/s 14.9 mm 9.9° 981.4 hPa 1.5 m/s 64.2 mm 7.9° 990.1 hPa 6.0 m/s 2.4 mm 8.4° 983.1 hPa 6.5 m/s
03:00 7.8° 988.7 hPa 5.0 m/s 16.9 mm 9.1° 980.7 hPa 2.9 m/s 78.3 mm 7.8° 989.4 hPa 6.4 m/s 1.2 mm 8.6° 982.2 hPa 7.0 m/s
06:00 7.2° 990.2 hPa 4.2 m/s 27.1 mm 7.1° 981.3 hPa 1.7 m/s 80.0 mm 8.1° 990.8 hPa 5.9 m/s 0.1 mm 8.1° 984.5 hPa 5.2 m/s
09:00 8.0° 992.7 hPa 3.6 m/s 27.2 mm 8.3° 983.2 hPa 2.6 m/s 80.0 mm 8.3° 993.4 hPa 5.5 m/s 0.2 mm 8.2° 987.7 hPa 4.0 m/s
12:00 8.7° 994.7 hPa 3.2 m/s 18.2 mm 10.9° 985.5 hPa 2.5 m/s 80.1 mm 8.8° 995.3 hPa 5.4 m/s 0.2 mm 8.2° 990.3 hPa 4.2 m/s
15:00 9.4° 996.6 hPa 2.7 m/s 9.0 mm 11.0° 988.2 hPa 1.6 m/s 80.5 mm 9.7° 997.1 hPa 4.2 m/s 0.0 mm 8.5° 992.5 hPa 3.8 m/s
18:00 9.6° 996.3 hPa 3.3 m/s 0.0 mm 10.8° 990.0 hPa 4.0 m/s 81.2 mm 9.2° 997.9 hPa 3.1 m/s 0.0 mm 8.2° 993.5 hPa 4.1 m/s
21:00 8.7° 996.5 hPa 3.7 m/s 28.4 mm 9.7° 991.5 hPa 5.9 m/s 83.2 mm 8.5° 997.8 hPa 3.1 m/s 1.0 mm 7.8° 994.1 hPa 4.1 m/s
 07:27     19:22    Daglengte: 11:55 Zaterdag 25 Sep
00:00 9.3° 992.2 hPa 3.6 m/s 84.6 mm 9.3° 992.2 hPa 3.6 m/s 84.6 mm 8.4° 994.0 hPa 1.7 m/s
03:00 7.9° 991.8 hPa 3.3 m/s 84.6 mm 7.9° 991.8 hPa 3.3 m/s 84.6 mm 8.4° 995.0 hPa 4.0 m/s
06:00 6.8° 995.6 hPa 2.5 m/s 22.3 mm 6.8° 995.6 hPa 2.5 m/s 22.3 mm
09:00 8.1° 996.6 hPa 2.6 m/s 22.3 mm 8.1° 996.6 hPa 2.6 m/s 22.3 mm
12:00 11.3° 998.2 hPa 2.7 m/s 22.4 mm 11.3° 998.2 hPa 2.7 m/s 22.4 mm
15:00 11.9° 1001.2 hPa 3.5 m/s 22.5 mm 11.9° 1001.2 hPa 3.5 m/s 22.5 mm
18:00 10.8° 1004.6 hPa 3.3 m/s 22.5 mm 10.8° 1004.6 hPa 3.3 m/s 22.5 mm
21:00 8.5° 1007.4 hPa 2.5 m/s 22.5 mm 8.5° 1007.4 hPa 2.5 m/s 22.5 mm
 07:30     19:19    Daglengte: 11:49 Zondag 26 Sep
00:00 9.6° 1010.0 hPa 3.6 m/s 22.5 mm 9.6° 1010.0 hPa 3.6 m/s 22.5 mm
03:00 8.5° 1012.7 hPa 2.1 m/s 22.5 mm 8.5° 1012.7 hPa 2.1 m/s 22.5 mm
06:00 8.3° 1014.5 hPa 2.3 m/s 22.5 mm 8.3° 1014.5 hPa 2.3 m/s 22.5 mm
09:00 9.9° 1016.1 hPa 4.1 m/s 22.5 mm 9.9° 1016.1 hPa 4.1 m/s 22.5 mm
12:00 14.0° 1017.6 hPa 5.2 m/s 22.5 mm 14.0° 1017.6 hPa 5.2 m/s 22.5 mm
15:00 15.3° 1018.4 hPa 5.4 m/s 22.5 mm 15.3° 1018.4 hPa 5.4 m/s 22.5 mm
18:00 13.7° 1019.4 hPa 4.9 m/s 22.5 mm 13.7° 1019.4 hPa 4.9 m/s 22.5 mm
21:00 10.7° 1021.1 hPa 4.1 m/s 22.5 mm 10.7° 1021.1 hPa 4.1 m/s 22.5 mm
 07:32     19:16    Daglengte: 11:44 Maandag 27 Sep
00:00 10.8° 1022.6 hPa 4.3 m/s 22.5 mm 10.8° 1022.6 hPa 4.3 m/s 22.5 mm
03:00 11.0° 1023.7 hPa 4.2 m/s 22.5 mm 11.0° 1023.7 hPa 4.2 m/s 22.5 mm
06:00 9.8° 1024.6 hPa 4.0 m/s 22.5 mm 9.8° 1024.6 hPa 4.0 m/s 22.5 mm
09:00 10.3° 1025.6 hPa 4.6 m/s 22.5 mm 10.3° 1025.6 hPa 4.6 m/s 22.5 mm
12:00 14.5° 1026.2 hPa 5.3 m/s 22.5 mm 14.5° 1026.2 hPa 5.3 m/s 22.5 mm
15:00 16.3° 1026.3 hPa 5.2 m/s 22.5 mm 16.3° 1026.3 hPa 5.2 m/s 22.5 mm
18:00 14.2° 1026.2 hPa 4.9 m/s 22.5 mm 14.2° 1026.2 hPa 4.9 m/s 22.5 mm
21:00 10.9° 1026.2 hPa 5.3 m/s 22.5 mm 10.9° 1026.1 hPa 5.3 m/s 22.5 mm
 07:35     19:13    Daglengte: 11:38 Dinsdag 28 Sep
00:00 10.0° 1026.3 hPa 5.2 m/s 22.5 mm 10.0° 1026.3 hPa 5.2 m/s 22.5 mm
03:00 9.4° 1025.9 hPa 5.0 m/s 22.5 mm 9.4° 1025.9 hPa 5.0 m/s 22.5 mm
06:00 8.7° 1025.1 hPa 5.3 m/s 22.5 mm 8.7° 1025.1 hPa 5.3 m/s 22.5 mm
09:00 9.2° 1024.9 hPa 5.8 m/s 22.5 mm 9.2° 1024.9 hPa 5.8 m/s 22.5 mm
12:00 13.2° 1024.9 hPa 6.4 m/s 22.5 mm 13.2° 1024.9 hPa 6.4 m/s 22.5 mm
15:00 14.9° 1025.3 hPa 5.8 m/s 22.5 mm 14.9° 1025.3 hPa 5.8 m/s 22.5 mm
18:00 12.9° 1025.7 hPa 5.5 m/s 22.5 mm 12.9° 1025.7 hPa 5.5 m/s 22.5 mm
21:00 11.0° 1026.5 hPa 4.7 m/s 22.5 mm 11.0° 1026.4 hPa 4.7 m/s 22.5 mm
 07:38     19:09    Daglengte: 11:31 Woensdag 29 Sep
00:00 9.9° 1026.6 hPa 4.8 m/s 22.5 mm 9.9° 1026.6 hPa 4.8 m/s 22.5 mm
03:00 9.8° 1026.6 hPa 5.1 m/s 22.5 mm 9.8° 1026.6 hPa 5.1 m/s 22.5 mm
09:00 9.4° 1027.2 hPa 5.3 m/s 22.5 mm 9.4° 1027.2 hPa 5.3 m/s 22.5 mm
15:00 10.2° 1028.4 hPa 5.0 m/s 23.6 mm 10.2° 1028.4 hPa 5.0 m/s 23.6 mm
21:00 10.4° 1029.0 hPa 4.9 m/s 26.8 mm 10.4° 1029.0 hPa 4.9 m/s 26.8 mm
 07:40     19:06    Daglengte: 11:26 Donderdag 30 Sep
03:00 10.9° 1029.9 hPa 6.0 m/s 27.3 mm 10.9° 1029.9 hPa 6.0 m/s 27.3 mm
09:00 10.4° 1030.6 hPa 4.8 m/s 27.6 mm 10.4° 1030.6 hPa 4.8 m/s 27.6 mm
15:00 10.9° 1031.6 hPa 5.4 m/s 27.8 mm 10.9° 1031.6 hPa 5.4 m/s 27.8 mm
21:00 10.4° 1031.4 hPa 5.7 m/s 27.9 mm 10.5° 1031.4 hPa 5.7 m/s 27.9 mm
 07:43     19:03    Daglengte: 11:20 Vrijdag 01 Okt
03:00 8.8° 1030.9 hPa 5.5 m/s 27.9 mm 8.8° 1030.9 hPa 5.5 m/s 27.9 mm
09:00 7.5° 1030.3 hPa 5.7 m/s 27.9 mm 7.5° 1030.3 hPa 5.7 m/s 27.9 mm
15:00 10.8° 1031.1 hPa 5.5 m/s 27.9 mm 10.8° 1031.1 hPa 5.5 m/s 27.9 mm
21:00 8.3° 1025.9 hPa 3.1 m/s 0.3 mm
 07:45     19:00    Daglengte: 11:15 Zaterdag 02 Okt
03:00 7.5° 1025.8 hPa 3.0 m/s 0.2 mm
09:00 7.5° 1025.3 hPa 3.4 m/s 0.0 mm
15:00 11.4° 1025.0 hPa 3.5 m/s 0.2 mm
21:00 8.6° 1024.6 hPa 3.5 m/s 0.2 mm
 07:48     18:57    Daglengte: 11:09 Zondag 03 Okt
03:00 7.7° 1024.2 hPa 3.1 m/s 0.3 mm
09:00 7.9° 1023.5 hPa 3.6 m/s 0.7 mm
15:00 11.1° 1023.2 hPa 3.6 m/s 0.6 mm
21:00 8.4° 1022.8 hPa 2.7 m/s 0.5 mm
 07:50     18:54    Daglengte: 11:04 Maandag 04 Okt
03:00 7.8° 1022.6 hPa 2.3 m/s 0.1 mm
09:00 7.5° 1022.4 hPa 2.3 m/s 0.2 mm
15:00 10.7° 1022.5 hPa 2.2 m/s 0.4 mm
21:00 8.0° 1022.0 hPa 2.1 m/s 0.6 mm
 07:53     18:50    Daglengte: 10:57 Dinsdag 05 Okt
03:00 7.3° 1021.0 hPa 2.2 m/s 0.8 mm
09:00 7.4° 1019.6 hPa 2.5 m/s 0.3 mm
15:00 10.2° 1018.2 hPa 2.0 m/s 1.3 mm
21:00 8.2° 1017.7 hPa 1.2 m/s 0.8 mm
 07:55     18:47    Daglengte: 10:52 Woensdag 06 Okt
03:00 7.3° 1017.5 hPa 0.5 m/s 0.6 mm
09:00 7.3° 1017.4 hPa 0.6 m/s 0.4 mm
15:00 10.2° 1018.1 hPa 1.4 m/s 0.2 mm
21:00 7.4° 1018.7 hPa 0.2 m/s 0.1 mm
FMI Hirlam - 7.5 km EWN WRFDA - 12 km DWD ICON - 7 km GFS - 25 km Basiskaart






























































Updatetijd (Europe/Amsterdam) Resolutie Lengte Stap
FMI Hirlam 19:15, 01:15, 07:15, 13:15 7.5 km 49h 1h
EWN WRFDA 22:15, 04:15, 10:15, 16:15 12 km 73h 1h
DWD ICON 18:00, 00:00, 06:00, 12:00 7 km 75h 1h
GFS 19:45, 01:45, 07:45, 13:45 25 km 237h 3h
30+ mm
25-30 mm
20-25 mm
15-20 mm
10-15 mm
6-10 mm
4-6 mm
2-4 mm
1-2 mm
0.5-1 mm
0.2-0.5 mm
0.1-0.2 mm
30+ mm
25-30 mm
20-25 mm
15-20 mm
10-15 mm
6-10 mm
4-6 mm
2-4 mm
1-2 mm
0.5-1 mm
0.2-0.5 mm
0.1-0.2 mm
Sneeuwval
Natte sneeuw
Hagel
Vorst
30+ mm
25-30 mm
20-25 mm
15-20 mm
10-15 mm
6-10 mm
4-6 mm
2-4 mm
1-2 mm
0.5-1 mm
0.2-0.5 mm
0.1-0.2 mm
Sneeuwval
Natte sneeuw
Hagel
Vorst
Onweer
50 mm
40 mm
30 mm
26 mm
22 mm
18 mm
14 mm
10 mm
9 mm
8 mm
7 mm
6 mm
5 mm
4.5 mm
4 mm
3.5 mm
3 mm
2.5 mm
2 mm
1.5 mm
1 mm
0.8 mm
0.6 mm
0.4 mm
0.2 mm
0.05 mm
35°
30°
25°
20°
15°
10°
-5°
-10°
-15°
-20°
-25°
-30°
-35°
33> m/s
29 m/s
25 m/s
21 m/s
17 m/s
14 m/s
11 m/s
8 m/s
5 m/s
3 m/s
0 m/s
2600 J/kg
2400 J/kg
2200 J/kg
2000 J/kg
1800 J/kg
1600 J/kg
1400 J/kg
1200 J/kg
1000 J/kg
800 J/kg
600 J/kg
400 J/kg
200 J/kg
70 dBZ
65 dBZ
60 dBZ
55 dBZ
50 dBZ
45 dBZ
40 dBZ
35 dBZ
30 dBZ
25 dBZ
20 dBZ
15 dBZ
10 dBZ
5 dBZ
-1 K
-2 K
-3 K
-4 K
-5 K
-6 K
-7 K
-8 K
-9 K
950 m²/s²
900 m²/s²
850 m²/s²
800 m²/s²
750 m²/s²
700 m²/s²
650 m²/s²
600 m²/s²
550 m²/s²
500 m²/s²
450 m²/s²
400 m²/s²
350 m²/s²
300 m²/s²
250 m²/s²
200 m²/s²
150 m²/s²
100 m²/s²
46 m/s
44 m/s
42 m/s
40 m/s
38 m/s
36 m/s
34 m/s
32 m/s
30 m/s
28 m/s
26 m/s
24 m/s
22 m/s
20 m/s
16 m/s
12 m/s
8 m/s
4 m/s
30 m/s
28 m/s
26 m/s
24 m/s
22 m/s
20 m/s
18 m/s
16 m/s
14 m/s
12 m/s
10 m/s
8 m/s
6 m/s
4 m/s
2 m/s
3.0
2.8
2.6
2.4
2.2
2.0
1.8
1.6
1.4
1.2
1.0
0.8
0.6
0.4
0.2
15
14
13
12
11
10
9
8
7
6
5
4
3
2
1
90%
80%
70%
60%
50%
40%
30%
20%
10%
42
40
38
36
34
32
30
28
26
24
22
20
18
16
14
12
90+ cm
80-90 cm
70-80 cm
60-70 cm
50-60 cm
40-50 cm
30-40 cm
20-30 cm
10-20 cm
1-10 cm
Sneeuwval
Natte sneeuw
Regen
>120 mm
115 mm
110 mm
105 mm
100 mm
95 mm
90 mm
85 mm
80 mm
75 mm
70 mm
65 mm
60 mm
55 mm
50 mm
45 mm
45 mm
40 mm
35 mm
30 mm
25 mm
20 mm
15 mm
10 mm
5 mm
0.1 mm
960 hPa
880 hPa
800 hPa
720 hPa
640 hPa
560 hPa
584 gpdm
568 gpdm
552 gpdm
536 gpdm
520 gpdm
504 gpdm
488 gpdm
Extreem zwaar Noodweer Kans op onweer
15% 15% 5% 50% 15%

Dag




Kaart






35°
30°
25°
20°
15°
10°
-5°
-10°
-15°
-20°
-25°
-30°